TIME,DELAY(SENSOR),PRES,OXYGEN,RAWTEMP,T(OPTODE),TCPHASE,FLUOR,BETA(BETA700),BETA(BETA412),BETA(BETA440),CDOM,C(CSC),ED(ED412.40),ED(ED444.00),ED(ED489.70),ED(ED554.30),LU(LU411.80),LU(LU443.40),LU(LU489.60),LU(LU554.10),COMP,TILTX,TILTY,CHECK
1383365833,5809,814.0100097656250000,50.3038215637207000,656.3129882812500000,4.7492790222167970,53.4565010070800800,52,97,86,78,77,15249,2147751003,2147425298,2148009325,2147875419,2147636891,2147057874,2148261257,2147198400,2049,3,13,25122
1383369429,5809,864.7800292968750000,53.1227302551269500,661.2467041015625000,4.5869197845458980,53.1296501159668000,51,99,87,80,78,15249,2147751369,2147423524,2148011355,2147877321,2147639661,2147056877,2148259456,2147195373,3037,4,13,3797
1383373029,5806,862.8099975585938000,54.7717018127441400,663.4406738281250000,4.5146307945251465,52.9407997131347660,52,96,85,79,76,15252,2147753005,2147423661,2148011346,2147876717,2147639890,2147058962,2148261961,2147201170,319,4,13,10052
1383376629,5810,902.2299804687500000,54.4139289855957000,665.5983276367188000,4.4434947967529300,53.0108909606933600,51,97,85,78,78,15252,2147751616,2147424566,2148011757,2147874898,2147641810,2147056722,2148260333,2147196690,374,3,13,2128
1383380229,5808,918.2100219726562000,53.8769111633300800,665.4503173828125000,4.4483761787414550,53.0819282531738300,52,98,86,79,79,15250,2147753179,2147423003,2148012480,2147874258,2147637549,2147052937,2148265051,2147199652,3395,4,13,28339
1383383829,5812,909.3699951171875000,54.5766296386718750,665.1334838867188000,4.4588217735290530,52.9873504638671900,52,97,86,78,79,15250,2147754194,2147420982,2148012836,2147877184,2147636900,2147053604,2148263222,2147198180,64,4,13,47432
1383387429,5810,949.7500000000000000,55.2364807128906250,666.9360961914062000,4.3993568420410160,52.9187583923339840,52,97,85,78,77,15250,2147752539,2147422665,2148012224,2147874358,2147642587,2147059520,2148258212,2147200393,3177,4,13,33519
1383391029,5808,943.9600219726562000,54.7085609436035160,666.4160156250000000,4.4165191650390625,52.9870910644531250,52,97,85,78,79,15248,2147751652,2147420992,2148011995,2147877641,2147641161,2147056640,2148261997,2147200283,98,4,13,35111
1383394629,5808,941.1900024414062000,54.7399902343750000,666.6638183593750000,4.4083418846130370,52.9859886169433600,51,96,81,79,77,15251,2147754112,2147421440,2148012086,2147872722,2147634486,2147057636,2148259904,2147200667,510,4,13,24524
1383398229,5809,968.9500122070312000,56.1816215515136700,668.8366699218750000,4.3366179466247560,52.8198890686035160,52,96,84,79,80,15251,2147752402,2147422912,2148012297,2147871689,2147640265,2147053750,2148259574,2147197312,3083,4,13,4080
1383401829,5809,962.5100097656250000,56.9246711730957000,670.3223266601562000,4.2875499725341800,52.7416801452636700,53,97,83,78,78,15252,2147752786,2147422299,2148016512,2147873408,2147641152,2147051794,2148262692,2147198555,500,4,13,18454
1383405429,5808,963.2100219726562000,57.2979393005371100,672.0416870117188000,4.2307281494140625,52.7215309143066400,52,97,82,79,77,15219,2147751533,2147422866,2148014637,2147875739,2147639168,2147047917,2148264128,2147197824,371,4,13,21712
1383409029,5809,992.2100219726562000,57.9482192993164060,674.0968017578125000,4.1627688407897950,52.6606597900390600,52,96,85,77,79,15251,2147754093,2147421961,2148016365,2147876809,2147640640,2147059300,2148263643,2147197595,324,4,13,37666
1383412629,5808,992.8800048828125000,58.2638511657714840,674.8024291992188000,4.1394228935241700,52.6280593872070300,52,97,83,79,80,15250,2147755117,2147423296,2148013915,2147874916,2147642797,2147056338,2148264118,2147198939,3472,4,13,57263
1383416229,5812,1005.2800292968750000,57.8903007507324200,673.0615234375000000,4.1970100402832030,52.6550292968750000,52,96,83,79,78,15252,2147751872,2147423862,2148012352,2147876937,2147638171,2147048868,2148269394,2147195821,3290,4,13,33031
1383419829,5810,1002.6900024414062000,57.7987709045410160,673.1137695312500000,4.1952800750732420,52.6691513061523440,51,98,86,79,79,15254,2147752292,2147422217,2148017408,2147875766,2147641225,2147056000,2148262482,2147197440,196,4,13,38220
1383423429,5808,994.7299804687500000,57.6129989624023440,673.4921875000000000,4.1827678680419920,52.6978111267089840,52,97,83,77,78,15251,2147752667,2147422528,2148009718,2147875410,2147640246,2147055844,2148260022,2147196416,748,4,13,48823
1383427029,5809,1002.7000122070312000,57.3400001525878900,673.5941162109375000,4.1793990135192870,52.7330894470214840,52,98,83,79,78,15251,2147752237,2147423890,2148013229,2147873206,2147639689,2147051858,2148262793,2147200045,3513,4,13,18223
1383430629,5811,1012.8300170898438000,57.6807289123535160,672.5302734375000000,4.2145748138427730,52.6744613647460940,51,97,84,77,78,15249,2147757220,2147426468,2148010797,2147875776,2147639972,2147054838,2148263533,2147199314,3541,3,13,5140
1383434229,5811,1014.4500122070312000,57.3675613403320300,671.3214111328125000,4.2545390129089355,52.7019004821777340,51,98,84,78,78,15253,2147753856,2147420626,2148011638,2147876498,2147639268,2147056411,2148261833,2147199753,353,4,13,10051
1383437829,5809,1011.8300170898438000,57.0269889831543000,671.4533081054688000,4.2501769065856930,52.7444610595703100,53,97,87,78,78,15252,2147752630,2147424822,2148012251,2147873609,2147641654,2147051565,2148259401,2147198080,344,4,13,60740
1383441429,5811,1002.2299804687500000,56.8195991516113300,672.0894775390625000,4.2291488647460940,52.7806816101074200,53,97,86,78,79,15248,2147755081,2147420397,2148013504,2147874011,2147641124,2147048941,2148266861,2147197622,3203,4,13,17939
1383445029,5810,1002.5100097656250000,57.2229118347168000,672.2814941406250000,4.2228012084960940,52.7317199707031250,53,97,86,79,78,15207,2147752758,2147421805,2148012461,2147872201,2147641398,2147056411,2148264155,2147200822,3376,4,13,31778
1383448629,5806,999.4199829101562000,57.1326904296875000,673.9025878906250000,4.1691908836364750,52.7686195373535160,52,96,86,78,78,15209,2147754797,2147421851,2148014409,2147872612,2147641517,2147056795,2148264027,2147200713,3152,4,13,20037
1383452229,5808,990.2299804687500000,58.3888015747070300,676.0103759765625000,4.0994429588317870,52.6343383789062500,52,97,82,79,78,15208,2147751826,2147424704,2148012187,2147872658,2147641526,2147052617,2148259510,2147200000,627,4,13,38707
1383455829,5809,1003.3599853515625000,58.7672386169433600,675.5556030273438000,4.1144981384277340,52.5735816955566400,52,97,85,78,78,15209,2147755995,2147422070,2148014089,2147870500,2147642185,2147050797,2148260425,2147196342,3539,4,13,37771
1383459429,5808,1007.2899780273438000,57.8669090270996100,674.0357055664062000,4.1647891998291020,52.6694297790527340,51,97,83,78,78,15206,2147753974,2147420672,2148012489,2147876068,2147642514,2147054372,2148256603,2147198336,3467,4,13,13153
1383463029,5808,1005.1699829101562000,57.6790008544921900,674.5902709960938000,4.1464419364929200,52.7017707824707000,52,98,86,78,78,15207,2147754395,2147424064,2148010322,2147873664,2147642450,2147055378,2148266569,2147198747,193,4,13,52059
1383466629,5808,1004.8499755859375000,57.6705703735351560,673.9940185546875000,4.1661720275878910,52.6946907043457000,53,101,87,79,79,15205,2147752256,2147426752,2148013924,2147878025,2147641389,2147044342,2148267346,2147200658,130,4,13,11212
1383470229,5809,1009.6400146484375000,57.8400382995605500,673.5963134765625000,4.1793251037597660,52.6684799194335940,52,97,82,79,78,15207,2147753289,2147422226,2148011766,2147871954,2147640274,2147052169,2148265856,2147196169,3337,4,13,14373
1383473829,5808,1009.2299804687500000,57.6180496215820300,673.6098022460938000,4.1788787841796875,52.6952400207519500,52,97,87,76,78,15204,2147754358,2147420918,2148010825,2147874761,2147639021,2147046226,2148261494,2147200758,3088,4,13,42926
1383477429,5806,1006.3499755859375000,57.8528709411621100,674.2761840820312000,4.1568360328674320,52.6761512756347660,52,97,85,77,76,15206,2147757933,2147419584,2148009600,2147874459,2147639213,2147055945,2148266614,2147198272,3374,4,13,4972
1383481029,5809,1006.5700073242188000,57.4241790771484400,673.6350708007812000,4.1780400276184080,52.7230491638183600,53,98,86,77,78,15201,2147756150,2147426038,2148011748,2147875776,2147641517,2147050029,2148264054,2147198546,3425,3,13,1380
1383484629,5807,1012.4000244140625000,57.8883094787597660,673.5413208007812000,4.1811428070068360,52.6617012023925800,52,95,83,77,78,15209,2147753252,2147422793,2148012772,2147872210,2147642944,2147053613,2148263908,2147198025,3354,4,13,8137
1383488229,5809,1007.3599853515625000,57.7867698669433600,673.6339111328125000,4.1780819892883300,52.6763496398925800,51,97,85,78,79,15201,2147755446,2147424832,2148014381,2147873389,2147640036,2147049417,2148269065,2147202368,90,4,13,6517
1383491829,5808,1005.9600219726562000,57.9550590515136700,674.5150756835938000,4.1489319801330570,52.6674690246582000,52,97,83,79,78,15203,2147755913,2147424475,2148013750,2147875922,2147641462,2147055387,2148260150,2147197732,219,3,13,37238
1383495429,5807,998.0800170898438000,57.7511596679687500,674.3289794921875000,4.1550879478454590,52.6914710998535160,52,98,88,78,78,15199,2147754569,2147423853,2148010834,2147870518,2147638528,2147050541,2148264612,2147197485,3115,3,13,1006
1383499029,5807,1003.9600219726562000,57.8134994506835940,676.0587158203125000,4.0978488922119140,52.7071304321289060,52,95,82,76,78,15202,2147752402,2147422902,2148010944,2147872274,2147640173,2147052626,2148266130,2147194989,187,4,13,11846
1383502629,5813,1010.1099853515625000,58.0129089355468750,674.7542724609375000,4.1410160064697270,52.6657104492187500,51,95,82,78,79,15201,2147754194,2147422491,2148013494,2147873792,2147641993,2147052397,2148264420,2147198454,18,4,13,6950
1383506229,5811,1010.2199707031250000,57.9126281738281250,674.1464233398438000,4.1611289978027340,52.6659507751464840,52,96,83,79,78,15200,2147750400,2147423094,2148012077,2147872274,2147641380,2147048155,2148264557,2147198299,458,4,13,9755
1383508556,5811,1012.5599975585938000,57.4088783264160160,674.1124267578125000,4.1622538566589355,52.7338485717773440,52,97,88,79,78,15248,2147754230,2147422043,2148011858,2147872704,2147639707,2147050962,2148267949,2147196443,3517,4,13,49670
